Weather History for YAMB - July, 2013

Change the Weather History Date:

Monday, July 29, 2013

  Actual Average (YBBN) Record (YBBN)
Temperature  
Mean Temperature 60 °F -  
Max Temperature 71 °F 72 °F 77 °F (2014)
Min Temperature 50 °F 50 °F 39 °F (2003)
Degree Days  
Heating Degree Days 4    
Growing Degree Days 10 (Base 50)    
Moisture  
Dew Point 53 °F    
Average Humidity 84    
Maximum Humidity 100    
Minimum Humidity 49    
Precipitation  
Precipitation 0.00 in 0.06 in - ()
Sea Level Pressure  
Sea Level Pressure 30.23 in    
Wind  
Wind Speed 3 mph ()    
Max Wind Speed 10 mph    
Max Gust Speed -    
Visibility 5.1 miles    
Events Fog    
Averages and records for this station are not official NWS values.
T = Trace of Precipitation, MM = Missing Value Source: Averaged Metar Reports

Daily Weather History Graph

Daily Weather History Graph

Search for Another Location

Airport or City:

Trip Planner

Search our weather history database for the weather conditions in past years. The results will help you decide how hot, cold, wet, or windy it might be!

Date:

Astronomy

Jul. 29, 2013 Rise Set
Actual Time 6:32 AM AEST 5:18 PM AEST
Civil Twilight 6:07 AM AEST 5:43 PM AEST
Nautical Twilight 5:39 AM AEST 6:11 PM AEST
Astronomical Twilight 5:11 AM AEST 6:39 PM AEST
Moon 11:58 PM AEST (7/29) 10:37 AM AEST (7/29)
Length of Visible Light 11h 35m
Length of Day
10h 46m
Waning Gibbous, 57% of the Moon is Illuminated
Jul 29
Waning Gibbous
Jul 30
Last Quarter
Aug 7
New
Aug 14
First Quarter
Aug 21
Full

Hourly Weather History & Observations

Time (AEST) Temp. Dew Point Humidity Pressure Visibility Wind Dir Wind Speed Gust Speed Precip Events Conditions
12:00 AM 51.8 °F 50.0 °F 94% 30.33 in 3.1 mi SSW 2.3 mph - N/A   Unknown
12:30 AM 51.8 °F 51.8 °F 100% 30.30 in 5.6 mi Calm Calm - N/A   Mostly Cloudy
12:31 AM 51.8 °F 51.8 °F 100% 30.30 in 6.2 mi Calm Calm - N/A   Mostly Cloudy
1:00 AM 53.6 °F 51.8 °F 94% 30.30 in 6.2 mi North - - N/A   Mostly Cloudy
1:22 AM 53.6 °F 53.6 °F 100% 30.30 in 3.7 mi SSW 4.6 mph - N/A   Overcast
1:30 AM 53.6 °F 53.6 °F 100% 30.30 in 5.0 mi SSW 1.2 mph - N/A   Overcast
1:37 AM 55.4 °F 53.6 °F 94% 30.30 in 6.2 mi SW 6.9 mph - N/A   Overcast
2:00 AM 53.6 °F 53.6 °F 100% 30.27 in 6.2 mi SW 4.6 mph - N/A   Mostly Cloudy
2:15 AM 53.6 °F 51.8 °F 94% 30.30 in 3.7 mi Calm Calm - N/A   Scattered Clouds
2:30 AM 51.8 °F 51.8 °F 100% 30.27 in 0.4 mi Calm Calm - N/A   Scattered Clouds
3:00 AM 51.8 °F 51.8 °F 100% 30.27 in 0.2 mi Calm Calm - N/A   Scattered Clouds
3:30 AM 50.0 °F 50.0 °F 100% 30.27 in 0.3 mi Calm Calm - N/A   Mostly Cloudy
4:00 AM 53.6 °F 51.8 °F 94% 30.24 in 4.3 mi Calm Calm - N/A   Mostly Cloudy
4:09 AM 53.6 °F 51.8 °F 94% 30.24 in 6.2 mi SW 2.3 mph - N/A   Mostly Cloudy
4:32 AM 50.0 °F 50.0 °F 100% 30.24 in 3.7 mi NNW 5.8 mph - N/A   Scattered Clouds
5:00 AM 50.0 °F 50.0 °F 100% 30.24 in 0.2 mi WNW 5.8 mph - N/A   Scattered Clouds
5:30 AM 51.8 °F 50.0 °F 94% 30.24 in 0.4 mi WNW 1.2 mph - N/A   Scattered Clouds
6:00 AM 51.8 °F 50.0 °F 94% 30.24 in 2.5 mi WSW 1.2 mph - N/A   Mostly Cloudy
6:30 AM 51.8 °F 51.8 °F 100% 30.24 in 6.2 mi Calm Calm - N/A   Mostly Cloudy
7:00 AM 53.6 °F 51.8 °F 94% 30.24 in 6.2 mi Calm Calm - N/A   Mostly Cloudy
7:30 AM 53.6 °F 51.8 °F 94% 30.27 in 6.2 mi SW 6.9 mph - N/A Fog Scattered Clouds
8:00 AM 55.4 °F 53.6 °F 94% 30.27 in 6.2 mi SW 5.8 mph - N/A   Scattered Clouds
8:30 AM 57.2 °F 53.6 °F 88% 30.27 in 6.2 mi SSW 4.6 mph - N/A   Mostly Cloudy
9:00 AM 59.0 °F 55.4 °F 88% 30.27 in 6.2 mi South 8.1 mph - N/A   Mostly Cloudy
9:30 AM 60.8 °F 55.4 °F 82% 30.27 in 6.2 mi SSW 6.9 mph - N/A   Mostly Cloudy
10:00 AM 62.6 °F 57.2 °F 82% 30.27 in 6.2 mi South 6.9 mph - N/A   Mostly Cloudy
10:30 AM 66.2 °F 57.2 °F 73% 30.27 in 6.2 mi SW 4.6 mph - N/A   Scattered Clouds
11:00 AM 66.2 °F 55.4 °F 68% 30.27 in 6.2 mi SSW 3.5 mph - N/A   Scattered Clouds
11:30 AM 69.8 °F 55.4 °F 60% 30.24 in 6.2 mi South 2.3 mph - N/A   Scattered Clouds
12:00 PM 71.6 °F 53.6 °F 53% 30.21 in 6.2 mi ESE 2.3 mph - N/A   Scattered Clouds
12:30 PM 69.8 °F 50.0 °F 49% 30.21 in 6.2 mi East 6.9 mph - N/A   Mostly Cloudy
1:00 PM 69.8 °F 53.6 °F 56% 30.18 in 6.2 mi SW 4.6 mph - N/A   Mostly Cloudy
1:30 PM 69.8 °F 50.0 °F 49% 30.18 in 6.2 mi SSW 4.6 mph - N/A   Mostly Cloudy
2:00 PM 69.8 °F 50.0 °F 49% 30.18 in 6.2 mi East 4.6 mph - N/A   Mostly Cloudy
2:30 PM 68.0 °F 51.8 °F 56% 30.15 in 6.2 mi ENE 10.4 mph - N/A   Mostly Cloudy
3:00 PM 68.0 °F 51.8 °F 56% 30.15 in 6.2 mi ENE 8.1 mph - N/A   Mostly Cloudy
3:30 PM 68.0 °F 51.8 °F 56% 30.15 in 6.2 mi East 8.1 mph - N/A   Mostly Cloudy
4:00 PM 66.2 °F 53.6 °F 64% 30.15 in 6.2 mi ENE 9.2 mph - N/A   Mostly Cloudy
4:30 PM 66.2 °F 53.6 °F 64% 30.15 in 6.2 mi ENE 8.1 mph - N/A   Mostly Cloudy
5:00 PM 64.4 °F 53.6 °F 68% 30.15 in 6.2 mi ENE 10.4 mph - N/A   Mostly Cloudy
5:30 PM 62.6 °F 55.4 °F 77% 30.15 in 6.2 mi NE 6.9 mph - N/A   Scattered Clouds
6:00 PM 62.6 °F 55.4 °F 77% 30.18 in 6.2 mi NE 5.8 mph - N/A   Scattered Clouds
6:30 PM 60.8 °F 55.4 °F 82% 30.18 in 6.2 mi East 5.8 mph - N/A   Scattered Clouds
7:00 PM 60.8 °F 53.6 °F 77% 30.18 in 6.2 mi East 5.8 mph - N/A   Overcast
7:30 PM 60.8 °F 53.6 °F 77% 30.18 in 6.2 mi East 4.6 mph - N/A   Mostly Cloudy
8:00 PM 60.8 °F 53.6 °F 77% 30.18 in 6.2 mi Calm Calm - N/A   Mostly Cloudy
8:30 PM 57.2 °F 53.6 °F 88% 30.18 in 6.2 mi Calm Calm - N/A   Scattered Clouds
9:00 PM 57.2 °F 53.6 °F 88% 30.18 in 6.2 mi Calm Calm - N/A   Scattered Clouds
9:30 PM 53.6 °F 51.8 °F 94% 30.18 in 6.2 mi Calm Calm - N/A   Mostly Cloudy
10:00 PM 53.6 °F 51.8 °F 94% 30.18 in 6.2 mi Calm Calm - N/A   Scattered Clouds
10:30 PM 53.6 °F 51.8 °F 94% 30.18 in 6.2 mi Calm Calm - N/A   Unknown
11:00 PM 51.8 °F 51.8 °F 100% 30.18 in 6.2 mi SSW 1.2 mph - N/A   Unknown
11:11 PM 51.8 °F 50.0 °F 94% 30.18 in 1.7 mi Calm Calm - N/A   Unknown
11:30 PM 50.0 °F 50.0 °F 100% 30.15 in 0.3 mi Calm Calm - N/A   Unknown